Track STARLINK-1893 now! 10-day predictions STARLINK-1893 is classified as:
1 46786U 20074AZ 21055.91668981 -.00000721 00000-0 -83625-5 0 9996 2 46786 53.0527 281.5783 0001434 57.7031 15.0433 15.38777516 1876